OpenBCM V1.08-5-g2f4a (Linux)

Packet Radio Mailbox

IZ3LSV

[San Dona' di P. JN]

 Login: GUEST





  
CX2SA  > SATDIG   31.08.10 21:09l 489 Lines 21539 Bytes #999 (0) @ WW
BID : AMSATBB5363
Read: GUEST
Subj: AMSAT-BB-digest V5 363
Path: IZ3LSV<9A0BBS<VE2PKT<F1BBI<CX2SA
Sent: 100831/1904Z @:CX2SA.LAV.URY.SA #:17052 [Minas] FBB7.00e $:AMSATBB5363
From: CX2SA@CX2SA.LAV.URY.SA
To  : SATDIG@WW

Today's Topics:

   1. Re: Transit Satellites (Jeff Moore)
   2.  Transit satellites -  I think I heard one (Gordon JC Pearce)
   3. Re: Transit satellites -  I think I heard one (Robert Bruninga)


----------------------------------------------------------------------

Message: 1
Date: Tue, 31 Aug 2010 11:22:39 -0700
From: "Jeff Moore" <tnetcenter@xxxxx.xxx>
Subject: [amsat-bb] Re: Transit Satellites
To: "Amsat" <amsat-bb@xxxxx.xxx>
Message-ID: <1172CC2568A145E7A9332BA66043AC46@xxxxxxxxx>
Content-Type: text/plain;	charset="iso-8859-1"

Out of the list you posted, how many of them are usable for ham voice or
data comms?

Jeff Moore  --  KE7ACY
CN94
----- Original Message ----- From: "Nigel Gunn G8IFF/W8IFF"
<nigel@xxxxx.xxx>

Problem there is that we will never agree on the list of satellites to
support.

Here's my current list:
OSCAR 3
1 01293U 65016F   10241.71079289 -.00000103 +00000-0 -30765-4 0 08859
2 01293 070.0765 303.6137 0020103 301.7493 058.1662 14.04801695321392
OSCAR 5
1 04321U 70008B   10241.67576056 -.00000031  00000-0  10000-3 0  3639
2 04321 102.1066 265.7505 0027469 230.7095 129.1540 12.52160259855645
OSCAR 6
1 06236U 72082B   10241.62647228 -.00000027  00000-0  10000-3 0  3539
2 06236 101.3950 242.2293 0004025 106.0338 254.1176 12.53082339732323
OSCAR 7
1 07530U 74089B   10242.50229683 -.00000027  00000-0  10000-3 0  8653
2 07530 101.4006 255.4849 0011897 127.1202 233.0962 12.53579422637761
OSCAR 8
1 10703U 78026B   10241.72958664  .00000013  00000-0  38096-4 0  9241
2 10703 098.7707 274.4211 0007220 040.0001 320.1717 13.98865717657338
OSCAR 10
1 14129U 83058B   10238.82719229 -.00000064 +00000-0 +10000-3 0 07639
2 14129 026.5957 077.9040 6048485 352.8694 001.4583 02.05870103176621
OSCAR 11 (UoSAT 2)
1 14781U 84021B   10241.58946120 +.00000381 +00000-0 +57702-4 0 03271
2 14781 098.0488 293.5271 0009368 008.3029 351.8347 14.79830461422661
OSCAR 24
1 15936U 85066B   10242.38580209 -.00000037  00000-0 -81852-4 0   804
2 15936 090.0563 022.0037 0170040 351.5500 008.2751 13.35181021221434
JAS 1 (FUJI 1)
1 16909U 86061B   10241.50165805 -.00000083 +00000-0 +10000-3 0 07730
2 16909 050.0152 254.4101 0010988 239.5548 120.4201 12.44454159093550
OSCAR 23
1 19070U 88033A   10241.88541763 +.00000056 +00000-0 +10000-3 0 08735
2 19070 090.2658 195.9583 0188372 220.8263 137.8631 13.27127631082025
OSCAR 25
1 19419U 88074A   10241.87525650 +.00000066 +00000-0 +10000-3 0 09319
2 19419 089.9297 028.0929 0096203 327.3759 032.1461 13.41832746077668
OSCAR 14 (UOSAT 3)
1 20437U 90005B   10241.78220863  .00000023  00000-0  24427-4 0  2973
2 20437 098.3960 189.3973 0010088 313.3846 046.6501 14.31582680 75808
OSCAR 15 (UOSAT 4)
1 20438U 90005C   10242.82519623 -.00000061  00000-0 -71090-5 0  7973
2 20438 098.4508 185.5517 0009593 344.7471 015.3434 14.30473726 75325
OSCAR 16 (PACSAT)
1 20439U 90005D   10241.49208219 -.00000003  00000-0  14666-4 0  9817
2 20439 098.3385 196.5384 0010431 314.0287 046.0029 14.31871579 75870
OSCAR 17 (DOVE)
1 20440U 90005E   10242.37792582  .00000003  00000-0  16604-4 0  7000
2 20440 098.3140 201.0215 0010181 303.3773 056.6434 14.32178138 76150
OSCAR 18 (WEBERSAT)
1 20441U 90005F   10242.38377292 -.00000028  00000-0  50247-5 0  2071
2 20441 098.3208 199.9079 0011069 309.1229 050.8970 14.31939037 76079
OSCAR 19 (LUSAT)
1 20442U 90005G   10241.47804939  .00000104  00000-0  54007-4 0  8903
2 20442 098.2996 202.0318 0011051 307.4367 052.5794 14.32102146 76044
JAS 1B (FUJI 2)
1 20480U 90013C   10242.63346533 -.00000004  00000-0  71264-4 0  5499
2 20480 099.0206 085.9613 0539552 255.1784 098.8969 12.83365541963279
INFORMATOR 1
1 21087U 91006A   10242.53008653  .00000041  00000-0  26167-4 0  6777
2 21087 082.9374 080.5935 0036055 136.3454 224.0570 13.75058840982794
COSMOS 2123
1 21089U 91007A   10241.78028778 +.00000044 +00000-0 +30082-4 0 05601
2 21089 082.9240 301.1406 0028700 184.6949 175.3942 13.74495913981443
OSCAR 22 (UoSAT 5)
1 21575U 91050B   10241.58326590 +.00000031 +00000-0 +23941-4 0 09213
2 21575 098.4996 190.7742 0007972 140.7922 219.3840 14.39730904003782
KITSAT B
1 22825U 93061C   10241.44758376  .00000162  00000-0  80611-4 0  6132
2 22825 098.4903 187.5209 0009288 056.2267 303.9792 14.29306564882518
POSAT 1
1 22826U 93061D   10242.75975731  .00000011  00000-0  20898-4 0  3528
2 22826 098.4844 189.3736 0009783 048.4149 311.7880 14.29563204882814
ITAMSAT
1 22828U 93061F   10242.77283877 -.00000019  00000-0  93697-5 0  5502
2 22828 098.4778 189.1867 0010416 023.2780 336.8872 14.29856318851100
EYESAT A
1 22829U 93061G   10241.93451491 +.00000073 +00000-0 +44771-4 0 05696
2 22829 098.4742 189.5502 0010081 021.8278 338.3327 14.30256764883014
RADIO ROSTO
1 23439U 94085A   10241.55881999 -.00000039 +00000-0 +10000-3 0 03518
2 23439 064.8187 275.9017 0161545 331.0713 028.1329 11.27554316645542
SICH 1
1 23657U 95046A   10241.65346428 +.00000161 +00000-0 +17288-4 0 01230
2 23657 082.5254 066.3662 0024070 002.1343 357.9944 14.81796579809191
JAS 2
1 24278U 96046B   10242.57315394  .00000010  00000-0  49537-4 0  3845
2 24278 098.5162 061.4259 0349889 290.9867 065.4172 13.52952170693160
UNAMSAT
1 24305U 96052B   10242.49575071  .00000010  00000-0 -57901-5 0  5145
2 24305 082.9343 029.1229 0031456 110.5173 249.9358 13.73586349700980
TMSAT
1 25396U 98043C   10242.70962279 -.00000001  00000-0  17148-4 0  7850
2 25396 098.3094 252.0771 0003367 039.6702 320.4726 14.23810943630840
TECHSAT 1B
1 25397U 98043D   10242.76513620  .00000086  00000-0  56233-4 0  2719
2 25397 098.3168 246.1162 0002065 067.1467 292.9921 14.23184203630651
SEDSAT 1
1 25509U 98061B   10242.62549966 -.00000140  00000-0 -42625-4 0  7843
2 25509 031.4337 087.5733 0354489 220.8046 136.5499 14.28326153618706
PAN SAT
1 25520U 98064B   10240.94081908 +.00000590 +00000-0 +18970-4 0 05671
2 25520 028.4583 202.9053 0005005 038.5021 321.5933 15.17643439655214
ISS (ZARYA)
1 25544U 98067A   10242.83949444  .00011625  00000-0  93789-4 0  8011
2 25544 051.6461 208.6267 0007866 313.5609 130.1547 15.71377945675211
SUNSAT
1 25636U 99008C   10242.39731760  .00000021  00000-0  13991-4 0  6967
2 25636 096.4847 326.5862 0146536 271.5761 086.8659 14.43511959606464
OSCAR 36 (UOSAT 12)
1 25693U 99021A   10242.44200544 -.00000106  00000-0  53750-5 0  2905
2 25693 064.5567 206.2928 0041416 300.6850 059.0172 14.78815578612790
KITSAT 3
1 25756U 99029A   10242.64431648  .00000036  00000-0  20535-4 0  2912
2 25756 098.6306 094.0785 0013122 276.5120 083.4577 14.52590075596950
OPAL
1 26063U 00004C   10241.65742192 -.00000002 +00000-0 +19590-4 0 08906
2 26063 100.2060 113.8672 0037256 107.0316 253.4956 14.35904229554879
SAUDISAT 1A
1 26545U 00057A   10239.40218402 +.00000038 +00000-0 +23814-4 0 06169
2 26545 064.5552 213.3030 0035627 209.4482 150.4609 14.80723624535785
TIUNGSAT 1
1 26548U 00057D   10241.70949752 +.00000074 +00000-0 +26940-4 0 07857
2 26548 064.5550 163.2984 0027855 212.4712 147.4686 14.83538804537006
AMSAT OSCAR 40
1 26609U 00072B   10241.29566402 -.00000202  00000-0  10000-3 0  4156
2 26609 009.1711 316.7577 7963385 343.3635 001.5045 01.25586937 45132
PCSAT
1 26931U 01043C   10242.71177457  .00000066  00000-0  57872-4 0  5459
2 26931 067.0537 011.9633 0005146 270.6442 089.4044 14.29609206465402
SAPPHIRE
1 26932U 01043D   10242.80157600  .00000048  00000-0  50783-4 0  5519
2 26932 067.0595 011.8288 0003663 260.3612 099.7107 14.29645093465463
RUBIN 2
1 27605U 02058A   10241.68569531 -.00000112 +00000-0 +39943-5 0 02694
2 27605 064.5571 118.3582 0038108 044.8096 315.6049 14.72487650413504
SAUDISAT 1C
1 27607U 02058C   10241.67580429 +.00000180 +00000-0 +50191-4 0 02572
2 27607 064.5584 133.3017 0039270 044.1364 316.2891 14.71570365413194
DTUSAT
1 27842U 03031C   10241.63290144  .00000046  00000-0  41167-4 0  9147
2 27842 098.7035 250.4008 0008868 304.1252 055.9089 14.21050931371613
CUTE-1
1 27844U 03031E   10242.53599572  .00000058  00000-0  47239-4 0  9246
2 27844 098.7105 250.4480 0009690 323.0116 037.0391 14.20726274371649
QUAKESAT
1 27845U 03031F   10242.80774145  .00000086  00000-0  60743-4 0  9075
2 27845 098.7190 250.2386 0008904 341.2588 018.8253 14.20379516371578
CANX-1
1 27847U 03031H   10241.57702600  .00000021  00000-0  29667-4 0  8402
2 27847 098.7036 250.3228 0009111 304.2818 055.7503 14.21027074371557
CUBESAT XI-IV
1 27848U 03031J   10241.51992247  .00000031  00000-0  34803-4 0  8718
2 27848 098.7159 248.5542 0009704 329.9382 030.1231 14.20517175371459
MOZHAYETS 4
1 27939U 03042A   10242.65081716  .00000068  00000-0  21749-4 0  4987
2 27939 097.8804 104.9378 0013341 179.5873 180.5320 14.63446848369849
AMSAT ECHO
1 28375U 04025K   10241.55907637 +.00000026 +00000-0 +20602-4 0 07626
2 28375 098.0679 230.8992 0082785 234.8630 124.4787 14.40696413324072
HAMSAT
1 28650U 05017B   10241.60375502 +.00000307 +00000-0 +45117-4 0 05864
2 28650 097.6847 292.1488 0028017 038.2272 322.0898 14.81798088287564
BEIJING 1 (TSINGHUA)
1 28890U 05043A   10242.84131638  .00000015  00000-0  12549-4 0  5742
2 28890 097.9924 124.4458 0016644 051.4766 308.7935 14.60109147258066
TOPSAT
1 28891U 05043B   10242.80858074  .00000023  00000-0  14223-4 0  4197
2 28891 097.9919 123.4310 0018309 054.1917 306.0973 14.59828004258000
UWE-1
1 28892U 05043C   10242.25723514  .00000154  00000-0  41411-4 0  7172
2 28892 097.9988 123.4635 0018435 054.3315 305.9588 14.59903727257905
SINAH 1
1 28893U 05043D   10241.73290761 +.00000039 +00000-0 +17457-4 0 08567
2 28893 097.9964 123.7475 0016570 056.1880 304.0903 14.60124906257907
SSETI-EXPRESS
1 28894U 05043E   10241.70442778 +.00000052 +00000-0 +20349-4 0 08549
2 28894 097.9980 123.0691 0018661 058.2580 302.0439 14.59747969257823
